Weather History for KYKN - January, 2014

Change the Weather History Date:

Friday, January 24, 2014

  Actual Average Record
Temperature  
Mean Temperature 34 °F -  
Max Temperature 48 °F 32 °F 60 °F (1981)
Min Temperature 19 °F 9 °F -26 °F (1948)
Degree Days  
Heating Degree Days 32    
Moisture  
Dew Point 21 °F    
Average Humidity 54    
Maximum Humidity 81    
Minimum Humidity 38    
Precipitation  
Precipitation 0.00 in - - ()
Sea Level Pressure  
Sea Level Pressure 29.86 in    
Wind  
Wind Speed 19 mph (West)    
Max Wind Speed 32 mph    
Max Gust Speed 40 mph    
Visibility 10 miles    
Events      
Averages and records for this station are not official NWS values.
T = Trace of Precipitation, MM = Missing Value Source: NWS Daily Summary

Daily Weather History Graph

Daily Weather History Graph

Search for Another Location

Airport or City:

Trip Planner

Search our weather history database for the weather conditions in past years. The results will help you decide how hot, cold, wet, or windy it might be!

Date:

Astronomy

Jan. 24, 2014 Rise Set
Actual Time 7:51 AM CST 5:31 PM CST
Civil Twilight 7:21 AM CST 6:02 PM CST
Nautical Twilight 6:46 AM CST 6:37 PM CST
Astronomical Twilight 6:13 AM CST 7:10 PM CST
Moon 1:18 AM CST (1/24) 11:53 AM CST (1/24)
Length of Visible Light 10h 41m
Length of Day
9h 40m
Last Quarter, 44% of the Moon is Illuminated
Jan 24
Last Quarter
Jan 30
New
Feb 6
First Quarter
Feb 14
Full
Feb 22
Last Quarter

Hourly Weather History & Observations

Time (CST) Temp. Windchill Dew Point Humidity Pressure Visibility Wind Dir Wind Speed Gust Speed Precip Events Conditions
12:15 AM 19.4 °F 4.1 °F -0.4 °F 42% 30.20 in 10.0 mi SW 18.4 mph - N/A   Clear
12:35 AM 19.4 °F 4.5 °F -0.4 °F 42% 30.18 in 10.0 mi SW 17.3 mph - N/A   Clear
12:55 AM 19.4 °F 5.0 °F 1.4 °F 46% 30.15 in 10.0 mi SSW 16.1 mph 20.7 mph N/A   Clear
1:15 AM 19.4 °F 6.6 °F 3.2 °F 49% 30.15 in 10.0 mi SW 12.7 mph 21.9 mph N/A   Clear
1:35 AM 21.2 °F 7.8 °F 3.2 °F 46% 30.13 in 10.0 mi SW 15.0 mph - N/A   Clear
1:55 AM 21.2 °F 7.3 °F 5.0 °F 50% 30.12 in 10.0 mi SW 16.1 mph - N/A   Clear
2:15 AM 21.2 °F 6.8 °F 3.2 °F 46% 30.09 in 10.0 mi SW 17.3 mph - N/A   Clear
2:35 AM 21.2 °F 6.0 °F 6.8 °F 54% 30.07 in 10.0 mi SW 19.6 mph 24.2 mph N/A   Clear
2:55 AM 21.2 °F 6.8 °F 6.8 °F 54% 30.05 in 10.0 mi SW 17.3 mph - N/A   Clear
3:15 AM 21.2 °F 5.2 °F 6.8 °F 54% 30.04 in 10.0 mi SW 21.9 mph - N/A   Clear
3:35 AM 21.2 °F 6.8 °F 6.8 °F 54% 30.02 in 10.0 mi SW 17.3 mph - N/A   Clear
3:55 AM 23.0 °F 10.1 °F 8.6 °F 54% 30.01 in 10.0 mi SW 15.0 mph - N/A   Clear
4:15 AM 23.0 °F 9.6 °F 10.4 °F 59% 30.00 in 10.0 mi SW 16.1 mph - N/A   Clear
4:35 AM 24.8 °F 11.5 °F 8.6 °F 50% 29.98 in 10.0 mi SW 17.3 mph - N/A   Clear
4:55 AM 24.8 °F 11.9 °F 8.6 °F 50% 29.96 in 10.0 mi SW 16.1 mph - N/A   Partly Cloudy
5:15 AM 26.6 °F 13.8 °F 8.6 °F 47% 29.95 in 10.0 mi SW 17.3 mph 23.0 mph N/A   Scattered Clouds
5:35 AM 26.6 °F 13.8 °F 10.4 °F 51% 29.95 in 10.0 mi SW 17.3 mph - N/A   Mostly Cloudy
5:55 AM 26.6 °F 14.3 °F 10.4 °F 51% 29.93 in 10.0 mi SW 16.1 mph - N/A   Overcast
6:15 AM 28.4 °F 16.6 °F 10.4 °F 47% 29.92 in 10.0 mi WSW 16.1 mph - N/A   Mostly Cloudy
6:35 AM 30.2 °F 18.1 °F 10.4 °F 44% 29.93 in 10.0 mi WSW 18.4 mph 26.5 mph N/A   Mostly Cloudy
6:55 AM 30.2 °F 18.1 °F 10.4 °F 44% 29.92 in 10.0 mi WSW 18.4 mph 24.2 mph N/A   Mostly Cloudy
7:15 AM 30.2 °F 18.9 °F 10.4 °F 44% 29.92 in 10.0 mi WSW 16.1 mph - N/A   Clear
7:35 AM 30.2 °F 19.8 °F 10.4 °F 44% 29.91 in 10.0 mi WSW 13.8 mph - N/A   Mostly Cloudy
7:55 AM 30.2 °F 19.3 °F 10.4 °F 44% 29.91 in 10.0 mi WSW 15.0 mph - N/A   Mostly Cloudy
8:15 AM 32.0 °F 21.2 °F 10.4 °F 41% 29.90 in 10.0 mi West 16.1 mph 20.7 mph N/A   Scattered Clouds
8:35 AM 33.8 °F 23.2 °F 10.4 °F 38% 29.90 in 10.0 mi West 17.3 mph 24.2 mph N/A   Mostly Cloudy
8:55 AM 35.6 °F 25.5 °F 12.2 °F 38% 29.90 in 10.0 mi West 17.3 mph 24.2 mph N/A   Overcast
9:15 AM 35.6 °F 25.5 °F 15.8 °F 44% 29.91 in 10.0 mi West 17.3 mph - N/A   Overcast
9:35 AM 37.4 °F 27.8 °F 15.8 °F 41% 29.90 in 10.0 mi West 17.3 mph 21.9 mph N/A   Overcast
9:55 AM 37.4 °F 27.8 °F 17.6 °F 45% 29.90 in 10.0 mi West 17.3 mph 23.0 mph N/A   Overcast
10:15 AM 39.2 °F 30.8 °F 17.6 °F 42% 29.90 in 10.0 mi West 15.0 mph 21.9 mph N/A   Overcast
10:35 AM 39.2 °F 30.5 °F 19.4 °F 45% 29.89 in 10.0 mi West 16.1 mph - N/A   Overcast
10:55 AM 39.2 °F 31.2 °F 21.2 °F 49% 29.88 in 10.0 mi West 13.8 mph - N/A   Overcast
11:15 AM 41.0 °F 33.1 °F 19.4 °F 42% 29.88 in 10.0 mi West 15.0 mph 21.9 mph N/A   Overcast
11:35 AM 42.8 °F 33.8 °F 24.8 °F 49% 29.87 in 10.0 mi West 21.9 mph 29.9 mph N/A   Mostly Cloudy
11:55 AM 42.8 °F 34.0 °F 26.6 °F 53% 29.87 in 10.0 mi WNW 20.7 mph 29.9 mph N/A   Scattered Clouds
12:15 PM 42.8 °F 33.3 °F 28.4 °F 57% 29.85 in 10.0 mi WNW 24.2 mph 31.1 mph N/A   Scattered Clouds
12:35 PM 42.8 °F 34.5 °F 28.4 °F 57% 29.84 in 10.0 mi WNW 18.4 mph 32.2 mph N/A   Partly Cloudy
12:55 PM 42.8 °F 34.3 °F 28.4 °F 57% 29.82 in 10.0 mi WNW 19.6 mph 26.5 mph N/A   Clear
1:15 PM 44.6 °F 36.4 °F 28.4 °F 53% 29.81 in 10.0 mi West 20.7 mph 26.5 mph N/A   Clear
1:35 PM 44.6 °F 35.5 °F 28.4 °F 53% 29.80 in 10.0 mi West 25.3 mph 29.9 mph N/A   Clear
1:55 PM 44.6 °F 36.9 °F 26.6 °F 49% 29.79 in 10.0 mi West 18.4 mph 25.3 mph N/A   Clear
2:15 PM 44.6 °F 36.4 °F 26.6 °F 49% 29.77 in 10.0 mi West 20.7 mph 27.6 mph N/A   Clear
2:35 PM 44.6 °F 35.5 °F 28.4 °F 53% 29.76 in 10.0 mi WNW 25.3 mph 31.1 mph N/A   Clear
2:55 PM 44.6 °F 35.1 °F 28.4 °F 53% 29.74 in 10.0 mi WNW 27.6 mph 33.4 mph N/A   Partly Cloudy
3:15 PM 46.4 °F 37.7 °F 28.4 °F 50% 29.73 in 10.0 mi West 26.5 mph 31.1 mph N/A   Partly Cloudy
3:35 PM 46.4 °F 38.3 °F 28.4 °F 50% 29.73 in 10.0 mi West 23.0 mph 32.2 mph N/A   Partly Cloudy
3:55 PM 46.4 °F 38.7 °F 28.4 °F 50% 29.71 in 10.0 mi West 20.7 mph 26.5 mph N/A   Mostly Cloudy
4:15 PM 46.4 °F 40.1 °F 28.4 °F 50% 29.70 in 10.0 mi West 15.0 mph 21.9 mph N/A   Overcast
4:35 PM 46.4 °F 40.4 °F 30.2 °F 53% 29.68 in 10.0 mi West 13.8 mph - N/A   Overcast
4:55 PM 46.4 °F 39.2 °F 30.2 °F 53% 29.68 in 10.0 mi West 18.4 mph 25.3 mph N/A   Overcast
5:15 PM 46.4 °F 38.7 °F 32.0 °F 57% 29.67 in 10.0 mi West 20.7 mph 25.3 mph N/A   Overcast
5:35 PM 46.4 °F 38.7 °F 33.8 °F 62% 29.67 in 10.0 mi West 20.7 mph 25.3 mph N/A   Overcast
5:55 PM 46.4 °F 39.2 °F 33.8 °F 62% 29.67 in 10.0 mi West 18.4 mph 26.5 mph N/A   Overcast
6:15 PM 46.4 °F 39.2 °F 33.8 °F 62% 29.68 in 10.0 mi West 18.4 mph - N/A   Overcast
6:35 PM 46.4 °F 37.7 °F 33.8 °F 62% 29.68 in 10.0 mi WNW 26.5 mph 35.7 mph N/A   Overcast
6:55 PM 48.2 °F - 33.8 °F 58% 29.68 in 10.0 mi WNW 26.5 mph 33.4 mph N/A   Mostly Cloudy
7:15 PM 48.2 °F - 33.8 °F 58% 29.68 in 10.0 mi WNW 26.5 mph 33.4 mph N/A   Scattered Clouds
7:35 PM 46.4 °F 37.9 °F 33.8 °F 62% 29.69 in 10.0 mi WNW 25.3 mph 35.7 mph N/A   Overcast
7:55 PM - - - N/A% 29.69 in 10.0 mi WNW 28.8 mph 40.3 mph N/A   Overcast
8:15 PM 44.6 °F 35.7 °F 33.8 °F 66% 29.71 in 10.0 mi NW 24.2 mph 33.4 mph N/A   Overcast
8:35 PM 44.6 °F 34.6 °F 33.8 °F 66% 29.72 in 10.0 mi NW 31.1 mph 39.1 mph N/A   Overcast
8:55 PM 44.6 °F 34.9 °F 32.0 °F 61% 29.74 in 10.0 mi NW 28.8 mph 39.1 mph N/A   Overcast
9:15 PM 42.8 °F 31.9 °F 32.0 °F 66% 29.75 in 10.0 mi NW 32.2 mph 40.3 mph N/A   Overcast
9:35 PM 41.0 °F 30.0 °F 33.8 °F 76% 29.76 in 10.0 mi NW 28.8 mph 39.1 mph N/A   Overcast
9:55 PM 39.2 °F 28.0 °F 32.0 °F 75% 29.77 in 10.0 mi NW 26.5 mph 32.2 mph N/A   Overcast
10:15 PM 39.2 °F 27.8 °F 30.2 °F 70% 29.78 in 10.0 mi NW 27.6 mph 34.5 mph N/A   Overcast
10:35 PM 37.4 °F 28.2 °F 32.0 °F 81% 29.78 in 10.0 mi NW 16.1 mph 24.2 mph N/A   Mostly Cloudy
10:55 PM 37.4 °F 27.5 °F 32.0 °F 81% 29.78 in 10.0 mi NW 18.4 mph 21.9 mph N/A   Mostly Cloudy
11:15 PM 39.2 °F 29.3 °F 32.0 °F 75% 29.79 in 10.0 mi WNW 20.7 mph 28.8 mph N/A   Overcast
11:35 PM 39.2 °F 28.7 °F 32.0 °F 75% 29.79 in 10.0 mi WNW 23.0 mph 26.5 mph N/A   Overcast
11:55 PM 39.2 °F 28.7 °F 32.0 °F 75% 29.79 in 10.0 mi WNW 23.0 mph 29.9 mph N/A   Overcast